| time (UTC) | temp F | wind direction | speed knots | gust knots | rain 1hr in | rain 24hr in | rain mn in | humidity % | barometer mb |
| 20260502214625 | 54 | 226 | 2.6 | 5.2 | 0.00 | 0.00 | 0.00 | 63 | 1008.8 |
| 20260502214339 | 54 | 205 | 3.5 | 6.1 | 0.00 | 0.00 | 0.00 | 63 | 1008.8 |
| 20260502213613 | 54 | 209 | 3.5 | 6.1 | 0.00 | 0.00 | 0.00 | 63 | 1008.8 |
| 20260502213107 | 54 | 218 | 3.5 | 6.1 | 0.00 | 0.00 | 0.00 | 62 | 1008.8 |
| 20260502212601 | 54 | 217 | 3.5 | 6.1 | 0.00 | 0.00 | 0.00 | 62 | 1008.8 |
| 20260502212055 | 54 | 263 | 2.6 | 6.1 | 0.00 | 0.00 | 0.00 | 62 | 1008.8 |
| 20260502211549 | 54 | 223 | 2.6 | 4.3 | 0.00 | 0.00 | 0.00 | 63 | 1008.9 |
| 20260502211043 | 54 | 237 | 2.6 | 4.3 | 0.00 | 0.00 | 0.00 | 62 | 1008.9 |
| 20260502210537 | 54 | 240 | 2.6 | 7.0 | 0.00 | 0.00 | 0.00 | 63 | 1008.7 |
| 20260502210031 | 54 | 241 | 2.6 | 7.0 | 0.00 | 0.00 | 0.00 | 63 | 1008.7 |
| 20260502205525 | 54 | 233 | 4.3 | 7.0 | 0.00 | 0.00 | 0.00 | 62 | 1008.8 |
| 20260502205019 | 54 | 209 | 4.3 | 7.0 | 0.00 | 0.00 | 0.00 | 62 | 1008.9 |
| 20260502204513 | 54 | 221 | 3.5 | 6.1 | 0.00 | 0.00 | 0.00 | 63 | 1009.0 |
| 20260502204007 | 54 | 208 | 2.6 | 6.1 | 0.00 | 0.00 | 0.00 | 64 | 1008.9 |
| 20260502203502 | 54 | 198 | 2.6 | 6.1 | 0.00 | 0.00 | 0.00 | 65 | 1008.8 |
| 20260502203002 | 54 | 234 | 3.5 | 7.0 | 0.00 | 0.00 | 0.00 | 65 | 1008.9 |
| 20260502202502 | 54 | 211 | 3.5 | 7.0 | 0.00 | 0.00 | 0.00 | 65 | 1009.0 |
| 20260502202225 | 54 | 191 | 3.5 | 5.2 | 0.00 | 0.00 | 0.00 | 66 | 1009.0 |
| 20260502201729 | 54 | 181 | 3.5 | 5.2 | 0.00 | 0.00 | 0.00 | 65 | 1009.1 |
| 20260502201002 | 53 | 184 | 3.5 | 7.8 | 0.00 | 0.00 | 0.00 | 66 | 1009.2 |
| 20260502200501 | 53 | 184 | 5.2 | 8.7 | 0.00 | 0.00 | 0.00 | 65 | 1009.2 |
| 20260502200002 | 53 | 195 | 5.2 | 8.7 | 0.00 | 0.00 | 0.00 | 65 | 1009.3 |
| 20260502195503 | 54 | 210 | 4.3 | 6.1 | 0.00 | 0.00 | 0.00 | 66 | 1009.3 |
| 20260502195002 | 53 | 259 | 3.5 | 6.1 | 0.00 | 0.00 | 0.00 | 66 | 1009.4 |
| 20260502194502 | 53 | 215 | 3.5 | 7.0 | 0.00 | 0.00 | 0.00 | 66 | 1009.4 |
| 20260502194221 | 53 | 215 | 3.5 | 7.0 | 0.00 | 0.00 | 0.00 | 66 | 1009.4 |
| 20260502193502 | 53 | 215 | 4.3 | 7.8 | 0.00 | 0.00 | 0.00 | 66 | 1009.4 |
| 20260502193002 | 53 | 209 | 4.3 | 8.7 | 0.00 | 0.00 | 0.00 | 66 | 1009.5 |
| 20260502192503 | 53 | 200 | 4.3 | 8.7 | 0.00 | 0.00 | 0.00 | 66 | 1009.5 |
| 20260502192000 | 53 | 205 | 3.5 | 7.0 | 0.00 | 0.00 | 0.00 | 65 | 1009.6 |
| 20260502191501 | 53 | 187 | 3.5 | 7.0 | 0.00 | 0.00 | 0.00 | 65 | 1009.7 |
| 20260502190955 | 53 | 196 | 3.5 | 5.2 | 0.00 | 0.00 | 0.00 | 65 | 1009.7 |
| 20260502190449 | 53 | 215 | 3.5 | 6.1 | 0.00 | 0.00 | 0.00 | 65 | 1009.7 |
| 20260502185942 | 53 | 176 | 3.5 | 6.1 | 0.00 | 0.00 | 0.00 | 65 | 1009.8 |
| 20260502185436 | 53 | 196 | 3.5 | 6.1 | 0.00 | 0.00 | 0.00 | 65 | 1009.8 |
| 20260502185419 | 53 | 196 | 3.5 | 6.1 | 0.00 | 0.00 | 0.00 | 65 | 1010.0 |
| 20260502184425 | 53 | 178 | 3.5 | 6.1 | 0.00 | 0.00 | 0.00 | 65 | 1010.0 |
| 20260502183416 | 53 | 217 | 3.5 | 7.0 | 0.00 | 0.00 | 0.00 | 65 | 1010.0 |
| 20260502183133 | 53 | 218 | 3.5 | 7.0 | 0.00 | 0.00 | 0.00 | 65 | 1010.0 |
| 20260502182416 | 53 | 219 | 4.3 | 8.7 | 0.00 | 0.00 | 0.00 | 66 | 1010.0 |
| 20260502181916 | 53 | 207 | 4.3 | 8.7 | 0.00 | 0.00 | 0.00 | 65 | 1009.9 |
| 20260502181634 | 53 | 200 | 3.5 | 7.0 | 0.00 | 0.00 | 0.00 | 65 | 1009.8 |
| 20260502180916 | 53 | 205 | 3.5 | 7.8 | 0.00 | 0.00 | 0.00 | 65 | 1009.9 |
| 20260502180415 | 53 | 224 | 3.5 | 7.8 | 0.00 | 0.00 | 0.00 | 65 | 1010.0 |
| 20260502170416 | 53 | 246 | 2.6 | 6.1 | 0.00 | 0.00 | 0.00 | 64 | 1010.4 |
| 20260502163916 | 53 | 254 | 1.7 | 5.2 | 0.00 | 0.00 | 0.00 | 65 | 1010.3 |
| 20260502163417 | 53 | 263 | 2.6 | 6.1 | 0.00 | 0.00 | 0.00 | 65 | 1010.3 |
| 20260502162915 | 52 | 240 | 2.6 | 6.1 | 0.00 | 0.00 | 0.00 | 65 | 1010.4 |
| 20260502162416 | 52 | 234 | 3.5 | 7.8 | 0.00 | 0.00 | 0.00 | 65 | 1010.4 |
| 20260502161914 | 52 | 299 | 3.5 | 7.8 | 0.00 | 0.00 | 0.00 | 65 | 1010.4 |
| 20260502161415 | 52 | 273 | 3.5 | 7.0 | 0.00 | 0.00 | 0.00 | 65 | 1010.4 |
| 20260502160908 | 52 | 304 | 3.5 | 7.0 | 0.00 | 0.00 | 0.00 | 65 | 1010.3 |
| 20260502160628 | 52 | 270 | 4.3 | 8.7 | 0.00 | 0.00 | 0.00 | 65 | 1010.5 |
| 20260502151902 | 52 | 242 | 5.2 | 8.7 | 0.00 | 0.00 | 0.00 | 64 | 1010.8 |
| 20260502151622 | 52 | 226 | 4.3 | 8.7 | 0.00 | 0.00 | 0.00 | 64 | 1010.8 |
| 20260502150901 | 53 | 237 | 5.2 | 10.4 | 0.00 | 0.00 | 0.00 | 64 | 1010.7 |
| 20260502150623 | 53 | 195 | 6.1 | 13.0 | 0.00 | 0.00 | 0.00 | 63 | 1010.8 |
| 20260502150120 | 53 | 245 | 6.1 | 13.0 | 0.00 | 0.00 | 0.00 | 64 | 1010.8 |
| 20260502130705 | 54 | 299 | 1.7 | 3.5 | 0.00 | 0.00 | 0.00 | 60 | 1010.6 |
| 20260502130159 | 54 | 284 | 1.7 | 3.5 | 0.00 | 0.00 | 0.00 | 61 | 1010.6 |
| 20260502123628 | 53 | 0 | 2.6 | 7.8 | 0.00 | 0.00 | 0.00 | 62 | 1011.3 |
| 20260502123121 | 53 | 253 | 2.6 | 7.8 | 0.00 | 0.00 | 0.00 | 62 | 1011.3 |
| 20260502122616 | 53 | 287 | 2.6 | 7.8 | 0.00 | 0.00 | 0.00 | 62 | 1011.2 |
| 20260502122110 | 53 | 295 | 2.6 | 7.8 | 0.00 | 0.00 | 0.00 | 62 | 1011.2 |
| 20260502121604 | 53 | 325 | 3.5 | 7.8 | 0.00 | 0.00 | 0.00 | 62 | 1011.3 |
| 20260502121058 | 53 | 341 | 3.5 | 9.6 | 0.00 | 0.00 | 0.00 | 62 | 1011.4 |
| 20260502120812 | 53 | 322 | 3.5 | 9.6 | 0.00 | 0.00 | 0.00 | 61 | 1011.4 |
| 20260502115539 | 53 | 279 | 3.5 | 8.7 | 0.00 | 0.00 | 0.00 | 63 | 1011.4 |
| 20260502115306 | 53 | 287 | 4.3 | 7.8 | 0.00 | 0.00 | 0.00 | 63 | 1011.3 |
| 20260502115022 | 53 | 257 | 4.3 | 10.4 | 0.00 | 0.00 | 0.00 | 63 | 1011.2 |
| 20260502114022 | 52 | 300 | 5.2 | 10.4 | 0.00 | 0.00 | 0.00 | 63 | 1011.1 |
| 20260502113516 | 52 | 261 | 5.2 | 9.6 | 0.00 | 0.00 | 0.00 | 63 | 1011.1 |
| 20260502113017 | 52 | 286 | 4.3 | 9.6 | 0.00 | 0.00 | 0.00 | 63 | 1011.0 |
| 20260502112516 | 52 | 267 | 6.1 | 12.2 | 0.00 | 0.00 | 0.00 | 63 | 1010.9 |
| 20260502112238 | 52 | 269 | 6.1 | 12.2 | 0.00 | 0.00 | 0.00 | 63 | 1010.9 |
| 20260502111516 | 52 | 281 | 6.1 | 11.3 | 0.00 | 0.00 | 0.00 | 63 | 1010.8 |
| 20260502111016 | 52 | 248 | 7.0 | 13.9 | 0.00 | 0.00 | 0.00 | 63 | 1011.0 |
| 20260502110513 | 52 | 242 | 7.0 | 13.9 | 0.00 | 0.00 | 0.00 | 63 | 1010.9 |
| 20260502110013 | 52 | 250 | 6.1 | 10.4 | 0.00 | 0.00 | 0.00 | 63 | 1010.8 |
| 20260502105512 | 52 | 288 | 6.1 | 10.4 | 0.00 | 0.00 | 0.00 | 63 | 1010.8 |
| 20260502105010 | 52 | 216 | 5.2 | 11.3 | 0.00 | 0.00 | 0.00 | 63 | 1010.7 |
| 20260502104511 | 52 | 263 | 6.1 | 13.0 | 0.00 | 0.00 | 0.00 | 63 | 1010.6 |
| 20260502104013 | 52 | 277 | 6.1 | 13.0 | 0.00 | 0.00 | 0.00 | 63 | 1010.7 |
| 20260502103510 | 52 | 250 | 6.1 | 13.0 | 0.00 | 0.00 | 0.00 | 63 | 1010.7 |
| 20260502103011 | 52 | 255 | 7.0 | 13.9 | 0.00 | 0.00 | 0.00 | 63 | 1010.5 |
| 20260502102511 | 52 | 306 | 7.0 | 13.9 | 0.00 | 0.00 | 0.00 | 63 | 1010.4 |
| 20260502102453 | 52 | 306 | 7.0 | 14.8 | 0.00 | 0.00 | 0.00 | 63 | 1010.5 |
| 20260502101736 | 52 | 225 | 7.0 | 14.8 | 0.00 | 0.00 | 0.00 | 64 | 1010.6 |
| 20260502101012 | 52 | 250 | 7.8 | 15.6 | 0.00 | 0.00 | 0.00 | 64 | 1010.5 |
| 20260502100733 | 52 | 261 | 7.8 | 15.6 | 0.00 | 0.00 | 0.00 | 64 | 1010.4 |
| 20260502090900 | 51 | 246 | 6.1 | 14.8 | 0.00 | 0.00 | 0.00 | 62 | 1010.2 |
| 20260502090619 | 51 | 277 | 7.0 | 14.8 | 0.00 | 0.00 | 0.00 | 62 | 1010.4 |
| 20260502071349 | 51 | 259 | 6.1 | 11.3 | 0.00 | 0.00 | 0.00 | 62 | 1010.6 |
| 20260502070848 | 51 | 259 | 5.2 | 11.3 | 0.00 | 0.00 | 0.00 | 62 | 1010.5 |
| 20260502070349 | 51 | 235 | 5.2 | 11.3 | 0.00 | 0.00 | 0.00 | 62 | 1010.5 |
| 20260502065849 | 51 | 229 | 5.2 | 10.4 | 0.00 | 0.00 | 0.00 | 61 | 1010.6 |
| 20260502065348 | 51 | 240 | 6.1 | 10.4 | 0.00 | 0.00 | 0.00 | 61 | 1010.7 |
| 20260502064848 | 51 | 244 | 6.1 | 11.3 | 0.00 | 0.00 | 0.00 | 61 | 1010.7 |
| 20260502064349 | 51 | 254 | 5.2 | 12.2 | 0.00 | 0.00 | 0.00 | 61 | 1010.8 |
| 20260502063850 | 51 | 286 | 4.3 | 12.2 | 0.00 | 0.00 | 0.00 | 61 | 1010.9 |
| 20260502063343 | 51 | 267 | 5.2 | 11.3 | 0.00 | 0.00 | 0.00 | 61 | 1010.9 |
| 20260502062837 | 51 | 244 | 5.2 | 11.3 | 0.00 | 0.00 | 0.00 | 61 | 1010.9 |
| 20260502062331 | 51 | 232 | 4.3 | 9.6 | 0.00 | 0.00 | 0.00 | 61 | 1010.8 |
| 20260502061825 | 51 | 228 | 4.3 | 9.6 | 0.00 | 0.00 | 0.00 | 60 | 1010.7 |
| 20260502061320 | 51 | 258 | 5.2 | 10.4 | 0.00 | 0.00 | 0.00 | 60 | 1010.9 |
| 20260502060813 | 51 | 238 | 3.5 | 10.4 | 0.00 | 0.00 | 0.00 | 60 | 1010.9 |
| 20260502060307 | 52 | 258 | 3.5 | 9.6 | 0.00 | 0.00 | 0.00 | 60 | 1011.0 |
| 20260502055801 | 52 | 268 | 4.3 | 10.4 | 0.00 | 0.00 | 0.00 | 60 | 1011.0 |
| 20260502055300 | 52 | 202 | 4.3 | 10.4 | 0.00 | 0.00 | 0.00 | 60 | 1011.0 |
| 20260502054758 | 52 | 249 | 4.3 | 9.6 | 0.00 | 0.00 | 0.00 | 60 | 1010.9 |
| 20260502054258 | 52 | 232 | 4.3 | 9.6 | 0.00 | 0.00 | 0.00 | 60 | 1010.8 |
| 20260502053800 | 52 | 253 | 5.2 | 8.7 | 0.00 | 0.00 | 0.00 | 59 | 1011.0 |
| 20260502053256 | 52 | 257 | 4.3 | 9.6 | 0.00 | 0.00 | 0.00 | 59 | 1010.9 |
| 20260502052757 | 52 | 261 | 4.3 | 10.4 | 0.00 | 0.00 | 0.00 | 59 | 1011.2 |
| 20260502052517 | 52 | 253 | 3.5 | 10.4 | 0.00 | 0.00 | 0.00 | 59 | 1011.2 |
| 20260502051754 | 52 | 252 | 3.5 | 7.8 | 0.00 | 0.00 | 0.00 | 59 | 1011.2 |
| 20260502051255 | 52 | 218 | 3.5 | 10.4 | 0.00 | 0.00 | 0.00 | 59 | 1011.3 |
| 20260502050755 | 52 | 294 | 4.3 | 10.4 | 0.00 | 0.00 | 0.00 | 59 | 1011.4 |
| 20260502050255 | 52 | 250 | 4.3 | 12.2 | 0.00 | 0.00 | 0.00 | 59 | 1011.3 |
| 20260502045755 | 52 | 261 | 4.3 | 12.2 | 0.00 | 0.00 | 0.00 | 59 | 1011.3 |
| 20260502045253 | 52 | 330 | 5.2 | 11.3 | 0.00 | 0.00 | 0.00 | 58 | 1011.5 |
| 20260502044751 | 52 | 284 | 6.1 | 13.9 | 0.00 | 0.00 | 0.00 | 58 | 1011.6 |
| 20260502044251 | 52 | 309 | 6.1 | 13.9 | 0.00 | 0.00 | 0.00 | 58 | 1011.6 |
| 20260502043750 | 52 | 249 | 5.2 | 13.0 | 0.00 | 0.00 | 0.00 | 58 | 1011.5 |
| 20260502043251 | 52 | 272 | 7.0 | 12.2 | 0.00 | 0.00 | 0.00 | 57 | 1011.4 |
| 20260502043007 | 52 | 269 | 7.0 | 13.9 | 0.00 | 0.00 | 0.00 | 57 | 1011.3 |
| 20260502042244 | 52 | 252 | 7.0 | 13.9 | 0.00 | 0.00 | 0.00 | 57 | 1011.1 |
| 20260502041744 | 52 | 273 | 6.1 | 11.3 | 0.00 | 0.00 | 0.00 | 57 | 1011.2 |
| 20260502041244 | 52 | 263 | 6.1 | 11.3 | 0.00 | 0.00 | 0.00 | 57 | 1011.2 |
| 20260502040744 | 52 | 272 | 5.2 | 12.2 | 0.00 | 0.00 | 0.00 | 57 | 1011.2 |
| 20260502040244 | 52 | 279 | 5.2 | 12.2 | 0.00 | 0.00 | 0.00 | 57 | 1011.3 |
| 20260502035748 | 52 | 260 | 5.2 | 10.4 | 0.00 | 0.00 | 0.00 | 56 | 1011.3 |
| 20260502035243 | 52 | 279 | 3.5 | 10.4 | 0.00 | 0.00 | 0.00 | 56 | 1011.4 |
| 20260502034743 | 52 | 284 | 3.5 | 9.6 | 0.00 | 0.00 | 0.00 | 56 | 1011.4 |
| 20260502034502 | 52 | 315 | 2.6 | 9.6 | 0.00 | 0.00 | 0.00 | 56 | 1011.6 |
| 20260502033742 | 52 | 256 | 2.6 | 8.7 | 0.00 | 0.00 | 0.00 | 56 | 1011.5 |
| 20260502033243 | 52 | 239 | 4.3 | 8.7 | 0.00 | 0.00 | 0.00 | 55 | 1011.6 |
| 20260502032747 | 51 | 225 | 2.6 | 8.7 | 0.00 | 0.00 | 0.00 | 57 | 1011.6 |
| 20260502032742 | 51 | 246 | 4.3 | 8.7 | 0.00 | 0.00 | 0.00 | 56 | 1011.5 |
| 20260502031741 | 51 | 296 | 0.9 | 5.2 | 0.00 | 0.00 | 0.00 | 57 | 1011.7 |
| 20260502031501 | 51 | 342 | 1.7 | 3.5 | 0.00 | 0.00 | 0.00 | 58 | 1011.8 |
| 20260502030738 | 52 | 335 | 1.7 | 3.5 | 0.00 | 0.00 | 0.00 | 58 | 1011.8 |
| 20260502030239 | 52 | 11 | 1.7 | 5.2 | 0.00 | 0.00 | 0.00 | 58 | 1011.7 |
| 20260502025738 | 52 | 355 | 1.7 | 5.2 | 0.00 | 0.00 | 0.00 | 58 | 1011.7 |
| 20260502025719 | 53 | 263 | 2.6 | 7.0 | 0.00 | 0.00 | 0.00 | 57 | 1011.7 |
| 20260502025001 | 53 | 5 | 3.5 | 10.4 | 0.00 | 0.00 | 0.00 | 57 | 1011.7 |
| 20260502024235 | 53 | 330 | 3.5 | 10.4 | 0.00 | 0.00 | 0.00 | 57 | 1011.6 |
| 20260502023958 | 53 | 279 | 2.6 | 7.8 | 0.00 | 0.00 | 0.00 | 57 | 1011.6 |
| 20260502023232 | 53 | 304 | 3.5 | 7.8 | 0.00 | 0.00 | 0.00 | 57 | 1011.6 |
| 20260502022733 | 53 | 306 | 3.5 | 8.7 | 0.00 | 0.00 | 0.00 | 57 | 1011.6 |
| 20260502022230 | 53 | 262 | 4.3 | 10.4 | 0.00 | 0.00 | 0.00 | 57 | 1011.3 |
| 20260502021731 | 53 | 244 | 5.2 | 10.4 | 0.00 | 0.00 | 0.00 | 57 | 1011.3 |
| 20260502021231 | 53 | 246 | 5.2 | 10.4 | 0.00 | 0.00 | 0.00 | 57 | 1011.3 |
| 20260502020731 | 53 | 227 | 4.3 | 10.4 | 0.00 | 0.00 | 0.00 | 57 | 1011.3 |
| 20260502020231 | 53 | 229 | 4.3 | 7.0 | 0.00 | 0.00 | 0.00 | 56 | 1011.2 |
| 20260502015730 | 53 | 254 | 4.3 | 7.8 | 0.00 | 0.00 | 0.00 | 56 | 1011.1 |
| 20260502015500 | 53 | 261 | 5.2 | 9.6 | 0.00 | 0.00 | 0.00 | 56 | 1011.2 |
| 20260502014731 | 53 | 227 | 6.1 | 11.3 | 0.00 | 0.00 | 0.00 | 55 | 1011.2 |
| 20260502014225 | 53 | 249 | 6.1 | 11.3 | 0.00 | 0.00 | 0.00 | 55 | 1011.2 |
| 20260502013719 | 53 | 233 | 6.1 | 11.3 | 0.00 | 0.00 | 0.00 | 56 | 1011.3 |
| 20260502013213 | 53 | 215 | 7.0 | 11.3 | 0.00 | 0.00 | 0.00 | 55 | 1011.3 |
| 20260502012706 | 53 | 259 | 7.0 | 11.3 | 0.00 | 0.00 | 0.00 | 55 | 1011.3 |
| 20260502012426 | 53 | 272 | 6.1 | 11.3 | 0.00 | 0.00 | 0.00 | 55 | 1011.4 |
| 20260502011654 | 53 | 248 | 7.0 | 13.0 | 0.00 | 0.00 | 0.00 | 54 | 1011.4 |
| 20260502011148 | 53 | 248 | 7.8 | 14.8 | 0.00 | 0.00 | 0.00 | 54 | 1011.3 |
| 20260502010643 | 53 | 229 | 8.7 | 16.5 | 0.00 | 0.00 | 0.00 | 54 | 1011.2 |
| 20260502010137 | 53 | 252 | 8.7 | 16.5 | 0.00 | 0.00 | 0.00 | 54 | 1011.3 |
| 20260502005631 | 53 | 271 | 8.7 | 16.5 | 0.00 | 0.00 | 0.00 | 54 | 1011.2 |
| 20260502005125 | 53 | 271 | 8.7 | 16.5 | 0.00 | 0.00 | 0.00 | 54 | 1011.0 |
| 20260502004618 | 53 | 277 | 9.6 | 17.4 | 0.00 | 0.00 | 0.00 | 53 | 1010.9 |
| 20260502004113 | 53 | 249 | 9.6 | 18.2 | 0.00 | 0.00 | 0.00 | 54 | 1011.0 |
| 20260502003608 | 53 | 246 | 9.6 | 18.2 | 0.00 | 0.00 | 0.00 | 54 | 1010.8 |
| 20260502003101 | 53 | 284 | 8.7 | 17.4 | 0.00 | 0.00 | 0.00 | 54 | 1010.7 |
| 20260502002555 | 53 | 262 | 7.8 | 17.4 | 0.00 | 0.00 | 0.00 | 54 | 1010.6 |
| 20260502002049 | 53 | 243 | 8.7 | 14.8 | 0.00 | 0.00 | 0.00 | 54 | 1010.5 |
| 20260502001544 | 53 | 265 | 9.6 | 15.6 | 0.00 | 0.00 | 0.00 | 54 | 1010.5 |
| 20260502001037 | 54 | 286 | 8.7 | 15.6 | 0.00 | 0.00 | 0.00 | 54 | 1010.4 |
| 20260502000530 | 54 | 263 | 7.8 | 16.5 | 0.00 | 0.00 | 0.00 | 53 | 1010.4 |
| 20260502000025 | 54 | 253 | 7.8 | 16.5 | 0.00 | 0.00 | 0.00 | 53 | 1010.2 |
| 20260501235519 | 54 | 265 | 7.0 | 16.5 | 0.00 | 0.00 | 0.00 | 53 | 1010.2 |
| 20260501235013 | 54 | 239 | 7.0 | 14.8 | 0.00 | 0.00 | 0.00 | 52 | 1010.1 |
| 20260501234507 | 54 | 238 | 7.8 | 14.8 | 0.00 | 0.00 | 0.00 | 51 | 1009.9 |
| 20260501234004 | 54 | 280 | 7.8 | 16.5 | 0.00 | 0.00 | 0.00 | 50 | 1009.9 |
| 20260501233813 | 55 | 246 | 7.8 | 16.5 | 0.00 | 0.00 | 0.00 | 50 | 1009.7 |
| 20260501233725 | 55 | 259 | 7.8 | 15.6 | 0.00 | 0.00 | 0.00 | 50 | 1009.8 |
| 20260501232504 | 55 | 218 | 7.8 | 15.6 | 0.00 | 0.00 | 0.00 | 50 | 1009.8 |
| 20260501232231 | 55 | 213 | 8.7 | 15.6 | 0.00 | 0.00 | 0.00 | 49 | 1009.7 |
| 20260501231728 | 56 | 256 | 7.8 | 13.9 | 0.00 | 0.00 | 0.00 | 50 | 1009.7 |
| 20260501231005 | 56 | 242 | 7.8 | 16.5 | 0.00 | 0.00 | 0.00 | 50 | 1009.8 |
| 20260501230503 | 56 | 253 | 8.7 | 16.5 | 0.00 | 0.00 | 0.00 | 48 | 1009.7 |
| 20260501230228 | 56 | 271 | 9.6 | 17.4 | 0.00 | 0.00 | 0.00 | 49 | 1009.7 |
| 20260501225504 | 57 | 259 | 9.6 | 17.4 | 0.00 | 0.00 | 0.00 | 47 | 1009.5 |
| 20260501225004 | 57 | 248 | 8.7 | 14.8 | 0.00 | 0.00 | 0.00 | 47 | 1009.5 |
| 20260501224504 | 58 | 252 | 8.7 | 16.5 | 0.00 | 0.00 | 0.00 | 43 | 1009.3 |
| 20260501224004 | 58 | 255 | 8.7 | 16.5 | 0.00 | 0.00 | 0.00 | 43 | 1009.3 |
| 20260501223504 | 58 | 254 | 7.8 | 15.6 | 0.00 | 0.00 | 0.00 | 43 | 1009.3 |
| 20260501223003 | 58 | 280 | 7.0 | 15.6 | 0.00 | 0.00 | 0.00 | 44 | 1009.2 |
| 20260501222723 | 58 | 262 | 7.8 | 13.9 | 0.00 | 0.00 | 0.00 | 44 | 1009.2 |
| 20260501222005 | 59 | 234 | 8.7 | 13.9 | 0.00 | 0.00 | 0.00 | 44 | 1009.3 |
| 20260501221458 | 59 | 247 | 7.8 | 13.9 | 0.00 | 0.00 | 0.00 | 42 | 1009.3 |
| 20260501220954 | 60 | 259 | 6.1 | 13.9 | 0.00 | 0.00 | 0.00 | 41 | 1009.2 |
| 20260501220714 | 60 | 252 | 7.0 | 12.2 | 0.00 | 0.00 | 0.00 | 42 | 1009.2 |
| 20260501220437 | 60 | 265 | 7.0 | 13.0 | 0.00 | 0.00 | 0.00 | 40 | 1009.2 |
| 20260501215454 | 60 | 294 | 7.8 | 13.0 | 0.00 | 0.00 | 0.00 | 42 | 1009.2 |
| 20260501214954 | 60 | 245 | 7.0 | 12.2 | 0.00 | 0.00 | 0.00 | 41 | 1009.2 |